Time,TemperatureF,DewpointF,PressureIn,WindDirection,WindDirectionDegrees,WindSpeedMPH,WindSpeedGustMPH,Humidity,HourlyPrecipIn,Conditions,Clouds,dailyrainin,SolarRadiationWatts/m^2,SoftwareType,DateUTC
2013-09-02 00:14:00,82.9,77.0,29.93,ENE,67,8.0,12.0,81,0.00,,,0.00,0,weatherlink.com 1.10,2013-09-02 04:14:00,
2013-09-02 00:29:00,82.7,77.0,29.93,ENE,72,9.0,10.0,82,0.00,,,0.00,0,weatherlink.com 1.10,2013-09-02 04:29:00,
2013-09-02 00:44:00,82.7,77.0,29.92,ENE,77,5.0,10.0,82,0.00,,,0.00,0,weatherlink.com 1.10,2013-09-02 04:44:00,
2013-09-02 00:59:00,82.6,77.0,29.91,ENE,67,7.0,12.0,82,0.00,,,0.00,0,weatherlink.com 1.10,2013-09-02 04:59:00,
2013-09-02 01:14:00,82.5,76.0,29.91,East,91,5.0,12.0,81,0.00,,,0.00,0,weatherlink.com 1.10,2013-09-02 05:14:00,
2013-09-02 01:29:00,82.5,77.0,29.90,ENE,65,13.0,14.0,82,0.00,,,0.00,0,weatherlink.com 1.10,2013-09-02 05:29:00,
2013-09-02 01:44:00,82.4,76.0,29.90,NE,35,9.0,11.0,82,0.00,,,0.00,0,weatherlink.com 1.10,2013-09-02 05:44:00,
2013-09-02 01:59:00,82.5,77.0,29.89,NE,42,7.0,11.0,83,0.00,,,0.00,0,weatherlink.com 1.10,2013-09-02 05:59:00,
2013-09-02 02:14:00,82.3,76.0,29.89,NE,51,6.0,11.0,82,0.00,,,0.00,0,weatherlink.com 1.10,2013-09-02 06:14:00,
2013-09-02 02:29:00,82.3,76.0,29.88,ENE,67,2.0,15.0,81,0.00,,,0.00,0,weatherlink.com 1.10,2013-09-02 06:29:00,
2013-09-02 02:44:00,82.3,76.0,29.88,East,87,7.0,9.0,82,0.00,,,0.00,0,weatherlink.com 1.10,2013-09-02 06:44:00,
2013-09-02 02:59:00,82.2,76.0,29.87,ENE,69,3.0,10.0,82,0.00,,,0.00,0,weatherlink.com 1.10,2013-09-02 06:59:00,
2013-09-02 03:14:00,82.1,76.0,29.87,East,84,3.0,10.0,82,0.00,,,0.00,0,weatherlink.com 1.10,2013-09-02 07:14:00,
2013-09-02 03:29:00,82.2,76.0,29.87,ENE,61,0.0,11.0,82,0.00,,,0.00,0,weatherlink.com 1.10,2013-09-02 07:29:00,
2013-09-02 03:44:00,82.1,77.0,29.87,NE,39,6.0,10.0,83,0.00,,,0.00,0,weatherlink.com 1.10,2013-09-02 07:44:00,
2013-09-02 03:59:00,82.1,77.0,29.87,ENE,72,7.0,13.0,83,0.00,,,0.00,0,weatherlink.com 1.10,2013-09-02 07:59:00,
2013-09-02 04:14:00,82.1,76.0,29.88,NE,53,4.0,10.0,82,0.00,,,0.00,0,weatherlink.com 1.10,2013-09-02 08:14:00,
2013-09-02 04:29:00,82.1,75.0,29.88,East,100,8.0,11.0,78,0.00,,,0.00,0,weatherlink.com 1.10,2013-09-02 08:29:00,
2013-09-02 04:44:00,82.0,75.0,29.88,ENE,70,4.0,11.0,78,0.00,,,0.00,0,weatherlink.com 1.10,2013-09-02 08:44:00,
2013-09-02 04:59:00,82.0,75.0,29.88,ENE,58,5.0,11.0,80,0.00,,,0.00,0,weatherlink.com 1.10,2013-09-02 08:59:00,
2013-09-02 05:14:00,82.0,76.0,29.88,ENE,71,1.0,7.0,81,0.00,,,0.00,0,weatherlink.com 1.10,2013-09-02 09:14:00,
2013-09-02 05:29:00,81.8,76.0,29.89,ENE,71,2.0,4.0,81,0.00,,,0.00,0,weatherlink.com 1.10,2013-09-02 09:29:00,
2013-09-02 05:44:00,81.6,76.0,29.89,ENE,71,1.0,4.0,82,0.00,,,0.00,0,weatherlink.com 1.10,2013-09-02 09:44:00,
2013-09-02 05:59:00,81.6,76.0,29.89,ENE,61,7.0,8.0,83,0.00,,,0.00,0,weatherlink.com 1.10,2013-09-02 09:59:00,
2013-09-02 06:14:00,81.8,76.0,29.89,NE,55,7.0,12.0,81,0.00,,,0.00,7,weatherlink.com 1.10,2013-09-02 10:14:00,
2013-09-02 06:30:00,82.1,75.0,29.89,East,85,3.0,11.0,80,0.00,,,0.00,26,weatherlink.com 1.10,2013-09-02 10:30:00,
2013-09-02 06:45:00,82.5,76.0,29.90,NE,41,3.0,13.0,80,0.00,,,0.00,37,weatherlink.com 1.10,2013-09-02 10:45:00,
2013-09-02 07:00:00,82.1,76.0,29.90,NE,41,0.0,2.0,82,0.00,,,0.00,32,weatherlink.com 1.10,2013-09-02 11:00:00,
2013-09-02 07:15:00,81.7,76.0,29.91,NE,41,1.0,5.0,83,0.00,,,0.00,32,weatherlink.com 1.10,2013-09-02 11:15:00,
2013-09-02 07:30:00,81.6,76.0,29.91,NE,41,5.0,5.0,84,0.02,,,0.02,25,weatherlink.com 1.10,2013-09-02 11:30:00,
2013-09-02 07:45:00,78.9,74.0,29.92,ENE,69,0.0,10.0,86,0.22,,,0.22,290,weatherlink.com 1.10,2013-09-02 11:45:00,
2013-09-02 08:00:00,78.7,75.0,29.92,ENE,69,0.0,3.0,88,0.23,,,0.23,406,weatherlink.com 1.10,2013-09-02 12:00:00,
2013-09-02 08:15:00,79.7,76.0,29.93,ENE,69,0.0,2.0,88,0.24,,,0.24,446,weatherlink.com 1.10,2013-09-02 12:15:00,
2013-09-02 08:30:00,81.1,77.0,29.93,ENE,69,1.0,2.0,87,0.22,,,0.24,497,weatherlink.com 1.10,2013-09-02 12:30:00,
2013-09-02 08:45:00,82.4,78.0,29.93,ENE,69,3.0,7.0,86,0.02,,,0.24,139,weatherlink.com 1.10,2013-09-02 12:45:00,
2013-09-02 09:00:00,83.7,78.0,29.93,NE,55,4.0,7.0,84,0.01,,,0.24,550,weatherlink.com 1.10,2013-09-02 13:00:00,
2013-09-02 09:15:00,84.8,78.0,29.94,NE,44,6.0,10.0,79,0.00,,,0.24,635,weatherlink.com 1.10,2013-09-02 13:15:00,
2013-09-02 09:30:00,85.9,78.0,29.94,NE,49,8.0,13.0,76,0.00,,,0.24,756,weatherlink.com 1.10,2013-09-02 13:30:00,
2013-09-02 09:45:00,85.0,77.0,29.94,NE,46,4.0,16.0,76,0.00,,,0.24,65,weatherlink.com 1.10,2013-09-02 13:45:00,
2013-09-02 10:00:00,83.9,76.0,29.95,ENE,61,13.0,13.0,76,0.00,,,0.24,90,weatherlink.com 1.10,2013-09-02 14:00:00,
2013-09-02 10:15:00,83.8,76.0,29.95,East,84,7.0,13.0,77,0.00,,,0.24,113,weatherlink.com 1.10,2013-09-02 14:15:00,
2013-09-02 10:30:00,84.3,77.0,29.95,NNE,26,4.0,13.0,78,0.00,,,0.24,304,weatherlink.com 1.10,2013-09-02 14:30:00,
2013-09-02 10:45:00,86.7,78.0,29.94,NE,50,5.0,12.0,76,0.00,,,0.24,926,weatherlink.com 1.10,2013-09-02 14:45:00,
2013-09-02 11:00:00,88.0,78.0,29.94,ENE,69,7.0,11.0,72,0.00,,,0.24,891,weatherlink.com 1.10,2013-09-02 15:00:00,
2013-09-02 11:15:00,88.6,78.0,29.95,ENE,65,4.0,13.0,71,0.00,,,0.24,889,weatherlink.com 1.10,2013-09-02 15:15:00,
2013-09-02 11:30:00,89.2,78.0,29.94,ENE,73,3.0,14.0,70,0.00,,,0.24,896,weatherlink.com 1.10,2013-09-02 15:30:00,
2013-09-02 11:45:00,89.7,79.0,29.93,ENE,77,9.0,10.0,70,0.00,,,0.24,211,weatherlink.com 1.10,2013-09-02 15:45:00,
2013-09-02 12:00:00,89.1,79.0,29.93,ENE,70,3.0,10.0,71,0.00,,,0.24,341,weatherlink.com 1.10,2013-09-02 16:00:00,
2013-09-02 12:15:00,89.5,79.0,29.93,East,80,8.0,10.0,70,0.00,,,0.24,967,weatherlink.com 1.10,2013-09-02 16:15:00,
2013-09-02 12:30:00,90.5,79.0,29.92,ENE,57,5.0,14.0,68,0.00,,,0.24,1041,weatherlink.com 1.10,2013-09-02 16:30:00,
2013-09-02 12:45:00,89.2,78.0,29.91,ENE,65,7.0,13.0,69,0.00,,,0.24,506,weatherlink.com 1.10,2013-09-02 16:45:00,
2013-09-02 13:00:00,88.6,77.0,29.91,ENE,64,3.0,12.0,69,0.00,,,0.24,548,weatherlink.com 1.10,2013-09-02 17:00:00,
2013-09-02 13:15:00,88.3,77.0,29.91,NE,45,8.0,12.0,69,0.00,,,0.24,272,weatherlink.com 1.10,2013-09-02 17:15:00,
2013-09-02 13:30:00,86.7,77.0,29.90,ENE,68,4.0,14.0,73,0.00,,,0.24,237,weatherlink.com 1.10,2013-09-02 17:30:00,
2013-09-02 13:45:00,86.8,77.0,29.89,ENE,75,10.0,13.0,73,0.00,,,0.24,619,weatherlink.com 1.10,2013-09-02 17:45:00,
2013-09-02 14:01:00,88.1,78.0,29.89,NNE,28,7.0,13.0,71,0.00,,,0.24,788,weatherlink.com 1.10,2013-09-02 18:01:00,
2013-09-02 14:16:00,89.5,77.0,29.88,NE,55,1.0,15.0,66,0.00,,,0.24,751,weatherlink.com 1.10,2013-09-02 18:16:00,
2013-09-02 14:31:00,89.4,77.0,29.88,ENE,70,2.0,11.0,67,0.00,,,0.24,633,weatherlink.com 1.10,2013-09-02 18:31:00,
2013-09-02 14:46:00,89.3,77.0,29.87,ENE,71,4.0,15.0,67,0.00,,,0.24,621,weatherlink.com 1.10,2013-09-02 18:46:00,
2013-09-02 15:01:00,89.3,77.0,29.87,ENE,65,4.0,12.0,68,0.00,,,0.24,642,weatherlink.com 1.10,2013-09-02 19:01:00,
2013-09-02 15:16:00,88.6,74.0,29.87,East,84,6.0,14.0,63,0.00,,,0.24,619,weatherlink.com 1.10,2013-09-02 19:16:00,
2013-09-02 15:31:00,89.2,77.0,29.87,ENE,71,7.0,13.0,67,0.00,,,0.24,250,weatherlink.com 1.10,2013-09-02 19:31:00,
2013-09-02 15:46:00,88.3,78.0,29.87,ENE,67,8.0,12.0,71,0.00,,,0.24,540,weatherlink.com 1.10,2013-09-02 19:46:00,
2013-09-02 16:01:00,87.9,77.0,29.87,East,79,2.0,11.0,69,0.00,,,0.24,468,weatherlink.com 1.10,2013-09-02 20:01:00,
2013-09-02 16:16:00,88.0,77.0,29.86,ENE,69,5.0,14.0,70,0.00,,,0.24,508,weatherlink.com 1.10,2013-09-02 20:16:00,
2013-09-02 16:31:00,87.5,77.0,29.86,ENE,67,3.0,13.0,70,0.00,,,0.24,162,weatherlink.com 1.10,2013-09-02 20:31:00,
2013-09-02 16:46:00,86.8,78.0,29.86,NE,36,4.0,10.0,74,0.00,,,0.24,315,weatherlink.com 1.10,2013-09-02 20:46:00,
2013-09-02 17:01:00,86.5,77.0,29.86,NE,52,4.0,13.0,74,0.00,,,0.24,125,weatherlink.com 1.10,2013-09-02 21:01:00,
2013-09-02 17:16:00,85.7,77.0,29.86,ENE,67,7.0,16.0,74,0.00,,,0.24,149,weatherlink.com 1.10,2013-09-02 21:16:00,
2013-09-02 17:31:00,85.3,76.0,29.86,ENE,76,9.0,12.0,74,0.00,,,0.24,88,weatherlink.com 1.10,2013-09-02 21:31:00,
2013-09-02 17:46:00,84.9,76.0,29.86,ENE,73,10.0,13.0,75,0.00,,,0.24,65,weatherlink.com 1.10,2013-09-02 21:46:00,
2013-09-02 18:01:00,84.5,77.0,29.86,ENE,59,4.0,11.0,77,0.00,,,0.24,47,weatherlink.com 1.10,2013-09-02 22:01:00,
2013-09-02 18:16:00,84.1,77.0,29.87,ENE,66,8.0,11.0,79,0.00,,,0.24,25,weatherlink.com 1.10,2013-09-02 22:16:00,
2013-09-02 18:31:00,83.3,76.0,29.87,NNE,28,6.0,10.0,79,0.00,,,0.24,7,weatherlink.com 1.10,2013-09-02 22:31:00,
2013-09-02 18:46:00,83.0,76.0,29.88,ENE,72,7.0,13.0,80,0.00,,,0.24,0,weatherlink.com 1.10,2013-09-02 22:46:00,
2013-09-02 19:01:00,82.6,75.0,29.88,NE,50,4.0,13.0,78,0.00,,,0.24,0,weatherlink.com 1.10,2013-09-02 23:01:00,
2013-09-02 19:16:00,82.7,75.0,29.88,ENE,71,5.0,13.0,77,0.00,,,0.24,0,weatherlink.com 1.10,2013-09-02 23:16:00,
2013-09-02 19:31:00,82.7,76.0,29.88,ENE,75,7.0,14.0,79,0.00,,,0.24,0,weatherlink.com 1.10,2013-09-02 23:31:00,
2013-09-02 19:46:00,82.7,76.0,29.89,ENE,69,4.0,15.0,80,0.00,,,0.24,0,weatherlink.com 1.10,2013-09-02 23:46:00,
2013-09-02 20:01:00,82.8,76.0,29.89,East,79,2.0,9.0,80,0.00,,,0.24,0,weatherlink.com 1.10,2013-09-03 00:01:00,
2013-09-02 20:16:00,82.7,76.0,29.90,ENE,75,7.0,12.0,80,0.00,,,0.24,0,weatherlink.com 1.10,2013-09-03 00:16:00,
2013-09-02 20:31:00,82.7,76.0,29.90,ENE,57,5.0,10.0,80,0.00,,,0.24,0,weatherlink.com 1.10,2013-09-03 00:31:00,
2013-09-02 20:46:00,82.6,76.0,29.91,NW,316,3.0,11.0,80,0.00,,,0.24,0,weatherlink.com 1.10,2013-09-03 00:46:00,
2013-09-02 21:01:00,81.6,74.0,29.91,ENE,72,11.0,15.0,78,0.00,,,0.24,0,weatherlink.com 1.10,2013-09-03 01:01:00,
2013-09-02 21:16:00,81.4,75.0,29.91,NE,49,8.0,13.0,82,0.00,,,0.24,0,weatherlink.com 1.10,2013-09-03 01:16:00,
2013-09-02 21:31:00,81.0,75.0,29.91,ENE,61,8.0,11.0,83,0.00,,,0.24,0,weatherlink.com 1.10,2013-09-03 01:31:00,
2013-09-02 21:46:00,81.3,76.0,29.91,ENE,63,8.0,8.0,83,0.00,,,0.24,0,weatherlink.com 1.10,2013-09-03 01:46:00,
2013-09-02 22:01:00,81.1,74.0,29.92,ENE,65,10.0,19.0,79,0.00,,,0.24,0,weatherlink.com 1.10,2013-09-03 02:01:00,
2013-09-02 22:16:00,80.2,73.0,29.92,ENE,63,5.0,16.0,79,0.00,,,0.24,0,weatherlink.com 1.10,2013-09-03 02:16:00,
2013-09-02 22:31:00,80.0,75.0,29.92,NNW,341,2.0,10.0,84,0.00,,,0.24,0,weatherlink.com 1.10,2013-09-03 02:31:00,
2013-09-02 22:46:00,78.8,74.0,29.92,NW,320,0.0,3.0,86,0.00,,,0.24,0,weatherlink.com 1.10,2013-09-03 02:46:00,
2013-09-02 23:01:00,79.0,75.0,29.91,NW,320,0.0,3.0,87,0.00,,,0.24,0,weatherlink.com 1.10,2013-09-03 03:01:00,
2013-09-02 23:16:00,79.2,75.0,29.91,NW,321,1.0,4.0,87,0.00,,,0.24,0,weatherlink.com 1.10,2013-09-03 03:16:00,
2013-09-02 23:31:00,80.8,76.0,29.91,ENE,78,3.0,14.0,85,0.00,,,0.24,0,weatherlink.com 1.10,2013-09-03 03:31:00,
2013-09-02 23:46:00,81.5,76.0,29.90,NE,46,9.0,13.0,84,0.00,,,0.24,0,weatherlink.com 1.10,2013-09-03 03:46:00,